Dubuque, IA

1:57 PM CDT on June 23, 2017 (GMT -0500)
Dubuque Regional

Weather History for KDBQ - June, 2014

Change the Weather History Date:

Tuesday, June 10, 2014

  Actual Average Record
Temperature  
Mean Temperature 63 °F 67 °F  
Max Temperature 68 °F 77 °F 95 °F (1933)
Min Temperature 58 °F 57 °F 40 °F (1972)
Degree Days  
Heating Degree Days 2 2  
Month to date heating degree days 7 24  
Since 1 June heating degree days 7 24  
Since 1 July heating degree days 8331 7070  
Cooling Degree Days 0 4  
Month to date cooling degree days 26 29  
Year to date cooling degree days 80 66  
Since 1 June cooling degree days 26 29  
Growing Degree Days 12 (Base 50)    
Moisture  
Dew Point 54 °F    
Average Humidity 71    
Maximum Humidity 78    
Minimum Humidity 63    
Precipitation  
Precipitation 0.03 in 0.15 in 2.84 in (1893)
Month to date precipitation 1.95 1.50  
Year to date precipitation 14.33 14.37  
Snow  
Snow 0.00 in 0.00 in - ()
Month to date snowfall 0.0 0.0  
Since 1 June snowfall 0.0 0.0  
Since 1 July snowfall 63.3 41.9  
Snow Depth 0.00 in    
Sea Level Pressure  
Sea Level Pressure 29.89 in    
Wind  
Wind Speed 9 mph (NE)    
Max Wind Speed 16 mph    
Max Gust Speed 23 mph    
Visibility 10 miles    
Events Rain    
T = Trace of Precipitation, MM = Missing Value Source: NWS Daily Summary

Daily Weather History Graph

Daily Weather History Graph

Search for Another Location

Airport or City:

Trip Planner

Search our weather history database for the weather conditions in past years. The results will help you decide how hot, cold, wet, or windy it might be!

Date:

Astronomy

Jun. 10, 2014 Rise Set
Actual Time 5:25 AM CDT 8:39 PM CDT
Civil Twilight 4:51 AM CDT 9:13 PM CDT
Nautical Twilight 4:06 AM CDT 9:58 PM CDT
Astronomical Twilight 3:12 AM CDT 10:52 PM CDT
Moon 6:02 PM CDT (6/10) 3:34 AM CDT (6/10)
Length of Visible Light 16h 22m
Length of Day
15h 13m
Waxing Gibbous, 92% of the Moon is Illuminated
Jun 10
Waxing Gibbous
Jun 12
Full
Jun 19
Last Quarter
Jun 27
New
Jul 5
First Quarter

Hourly Weather History & Observations

Time (CDT) Temp. Dew Point Humidity Pressure Visibility Wind Dir Wind Speed Gust Speed Precip Events Conditions
12:53 AM 64.0 °F 57.0 °F 78% 29.92 in 10.0 mi NNE 9.2 mph - N/A   Mostly Cloudy
1:53 AM 63.0 °F 55.9 °F 78% 29.91 in 10.0 mi ENE 9.2 mph - N/A   Scattered Clouds
2:53 AM 62.1 °F 53.1 °F 72% 29.91 in 10.0 mi East 11.5 mph - N/A   Overcast
3:53 AM 61.0 °F 51.1 °F 70% 29.90 in 10.0 mi ENE 15.0 mph - N/A   Mostly Cloudy
4:53 AM 60.1 °F 48.9 °F 67% 29.90 in 10.0 mi East 10.4 mph - N/A   Partly Cloudy
5:53 AM 59.0 °F 48.0 °F 67% 29.91 in 10.0 mi ENE 6.9 mph - N/A   Partly Cloudy
6:53 AM 59.0 °F 50.0 °F 72% 29.91 in 10.0 mi NE 6.9 mph - N/A   Clear
7:53 AM 60.1 °F 48.9 °F 67% 29.91 in 10.0 mi NE 9.2 mph - N/A   Clear
8:53 AM 60.8 °F 50.0 °F 68% 29.92 in 10.0 mi NE 9.2 mph - N/A   Clear
9:53 AM 62.6 °F 51.8 °F 68% 29.92 in 10.0 mi ENE 6.9 mph - N/A   Clear
10:53 AM 64.0 °F 52.0 °F 65% 29.92 in - NNE 5.8 mph - N/A   Clear
11:53 AM 66.0 °F 55.0 °F 68% 29.91 in 10.0 mi NE 6.9 mph - N/A   Clear
12:53 PM 68.0 °F 55.9 °F 65% 29.91 in 10.0 mi NE 6.9 mph - N/A   Scattered Clouds
1:53 PM 68.0 °F 55.4 °F 64% 29.91 in 10.0 mi ENE 6.9 mph - N/A   Overcast
3:53 PM 68.0 °F 57.2 °F 68% 29.90 in 10.0 mi East 9.2 mph - N/A   Overcast
4:53 PM 68.0 °F 57.9 °F 70% 29.88 in 10.0 mi East 10.4 mph - 0.00 in   Overcast
5:53 PM 66.9 °F 55.9 °F 68% 29.87 in 10.0 mi NE 10.4 mph - N/A   Overcast
6:53 PM 66.0 °F 55.9 °F 70% 29.86 in 10.0 mi ENE 10.4 mph - N/A   Overcast
7:53 PM 66.0 °F 55.9 °F 70% 29.84 in 10.0 mi NE 12.7 mph - N/A   Overcast
8:53 PM 64.9 °F 55.0 °F 70% 29.84 in 10.0 mi NE 10.4 mph - N/A   Overcast
9:53 PM 64.4 °F 55.4 °F 73% 29.85 in 10.0 mi NE 11.5 mph - N/A   Overcast
10:53 PM 64.0 °F 55.9 °F 75% 29.84 in 10.0 mi NE 11.5 mph - N/A   Overcast
11:53 PM 60.1 °F 57.9 °F 93% 29.84 in 4.0 mi ENE 8.1 mph - 0.00 in Rain Light Rain